Location: Seminole
(32.7190°N, 102.6440°W)
Time: 18:12:59
(UTC-05:00)

Meteor 2-10 - Visible Passes

Search period start: 22 May 2017 00:00
Search period end: 01 June 2017 00:00
Orbit: 737 x 870 km, 81.2° (Epoch: 21 May)

Date Brightness Start Highest point End Pass type
(mag) Time Alt. Az. Time Alt. Az. Time Alt. Az.
22 May 6.1 03:06:39 10° NNE 03:10:11 19° ENE 03:11:14 18° E visible
22 May 4.5 04:47:30 10° NNW 04:52:10 37° W 04:52:13 37° W visible
23 May 6.6 02:42:01 10° NE 02:43:58 12° ENE 02:44:59 11° E visible
23 May 4.1 04:21:12 10° NNW 04:25:58 58° W 04:25:58 58° W visible
24 May 4.0 03:55:04 10° N 03:59:45 76° N 03:59:45 76° N visible
25 May 4.6 03:29:06 10° N 03:33:35 54° NE 03:33:35 54° NE visible
25 May 6.1 05:13:43 10° WNW 05:14:35 11° WNW 05:14:35 11° WNW visible
26 May 5.3 03:03:19 10° N 03:07:27 36° ENE 03:07:27 36° ENE visible
26 May 5.7 04:46:08 10° NW 04:48:27 17° WNW 04:48:27 17° WNW visible
27 May 5.8 02:37:44 10° NNE 02:41:21 24° ENE 02:41:21 24° ENE visible
27 May 5.4 04:19:21 10° NNW 04:22:21 25° WNW 04:22:21 25° WNW visible
28 May 6.3 02:12:33 10° NE 02:15:17 16° ENE 02:15:17 16° ENE visible
28 May 5.0 03:52:55 10° NNW 03:56:17 35° NW 03:56:17 35° NW visible
29 May 6.7 01:48:43 10° ENE 01:49:14 10° ENE 01:49:14 10° ENE visible
29 May 4.8 03:26:41 10° NNW 03:30:13 44° NNW 03:30:13 44° NNW visible
30 May 4.9 03:00:37 10° N 03:04:13 45° N 03:04:13 45° N visible
31 May 5.3 02:34:43 10° N 02:38:13 37° NNE 02:38:13 37° NNE visible
31 May 6.2 04:18:26 10° NW 04:19:13 12° WNW 04:19:13 12° WNW visible
